Flag for Norway Weather past 2 weeks in Finse, Norway

Now
44 °F

Quite cool.


Feels Like: 40 °F
Forecast: 35 / 46 °F
Wind: 7 mph from Northwest

Location: Finsevatn

Current Time: Aug 21, 2014 at 7:14:55 PM

Latest Report: Aug 21, 2014 at 6:00 PM


Visibility: N/A

Pressure: 29.64 "Hg

Humidity: 74%

Dew point: 36 °F

Location of FinseLocation

Historic Weather in Finse — Graph

°F

Finse temperature yesterday

Maximum temperature yesterday: 48 °F (at 2:00 PM)
Minimum temperature yesterday: 43 °F (at 9:00 PM)
Average temperature yesterday: 45 °F

Past Weeks' High & Low Weather Summary

 TemperatureHumidityPressure
High53 °F (Aug 15, 4:00 PM)92% (Aug 16, 2:00 AM)29.73 "Hg (Aug 16, 2:00 AM)
Low39 °F (Aug 21, 7:00 AM)62% (Aug 15, 5:00 PM)29.12 "Hg (Aug 18, 2:00 PM)
Average44 °F81%29.43 "Hg
* Reported Aug 6 6:00 PM — Aug 21 6:00 PM, Finse, Weather by CustomWeather, © 2014

Note: Actual official high and low records may vary slightly from our data, if they occured in-between our weather recording intervals... More about our weather records

Advertising

Finse weather history for previous 24 hours

 ConditionsComfort  
Time TempWeatherWind HumidityBarometerVisibility
6:00 PM
Aug 21
44 °FQuite cool.7 mph74%29.64 "HgN/A
5:00 PM44 °FQuite cool.8 mph78%29.64 "HgN/A
4:00 PM46 °FCool.7 mph72%29.62 "HgN/A
3:00 PM45 °FCool.7 mph74%29.63 "HgN/A
2:00 PM45 °FQuite cool.7 mph77%29.63 "HgN/A
1:00 PM44 °FQuite cool.6 mph72%29.63 "HgN/A
12:00 PM43 °FQuite cool.3 mph78%29.63 "HgN/A
11:00 AM41 °FQuite cool.5 mph81%29.65 "HgN/A
10:00 AM41 °FQuite cool.6 mph85%29.65 "HgN/A
9:00 AM41 °FQuite cool.7 mph85%29.63 "HgN/A
8:00 AM40 °FChilly.6 mph90%29.62 "HgN/A
7:00 AM39 °FChilly.7 mph90%29.62 "HgN/A
6:00 AM40 °FChilly.8 mph90%29.62 "HgN/A
5:00 AM40 °FChilly.8 mph90%29.62 "HgN/A
4:00 AM40 °FChilly.8 mph90%29.62 "HgN/A
3:00 AM40 °FQuite cool.9 mph89%29.61 "HgN/A
2:00 AM41 °FQuite cool.7 mph90%29.60 "HgN/A
1:00 AM42 °FQuite cool.6 mph90%29.59 "HgN/A
12:00 AM42 °FQuite cool.6 mph87%29.58 "HgN/A
11:00 PM
Aug 20
43 °FQuite cool.6 mph84%29.56 "HgN/A
10:00 PM44 °FQuite cool.7 mph83%29.55 "HgN/A
9:00 PM43 °FQuite cool.7 mph86%29.55 "HgN/A
8:00 PM44 °FQuite cool.7 mph84%29.53 "HgN/A
7:00 PM45 °FQuite cool.8 mph79%29.50 "HgN/A
Weather by CustomWeather, © 2014

See weather overviewHow to use our weather pages